Alpine, TX

4:26 PM CDT on October 23, 2017 (GMT -0500)
Alpine

Weather History for KE38 - December, 2012

Change the Weather History Date:

Saturday, December 8, 2012

  Actual Average (KMRF) Record (KMRF)
Temperature  
Mean Temperature 54 °F -  
Max Temperature 70 °F 55 °F 71 °F (2008)
Min Temperature 38 °F 26 °F 8 °F (2005)
Degree Days  
Heating Degree Days 11    
Growing Degree Days 4 (Base 50)    
Moisture  
Dew Point 23 °F    
Average Humidity 31    
Maximum Humidity 49    
Minimum Humidity 16    
Precipitation  
Precipitation 0.00 in - - ()
Sea Level Pressure  
Sea Level Pressure 30.02 in    
Wind  
Wind Speed 8 mph (SW)    
Max Wind Speed 18 mph    
Max Gust Speed 25 mph    
Visibility 10 miles    
Events      
Averages and records for this station are not official NWS values.
T = Trace of Precipitation, MM = Missing Value Source: NWS Daily Summary

Daily Weather History Graph

Daily Weather History Graph

Search for Another Location

Airport or City:

Trip Planner

Search our weather history database for the weather conditions in past years. The results will help you decide how hot, cold, wet, or windy it might be!

Date:

Astronomy

Dec. 08, 2012 Rise Set
Actual Time 7:39 AM CST 5:54 PM CST
Civil Twilight 7:13 AM CST 6:20 PM CST
Nautical Twilight 6:43 AM CST 6:50 PM CST
Astronomical Twilight 6:14 AM CST 7:19 PM CST
Moon 2:24 AM CST (12/8) 2:10 PM CST (12/8)
Length of Visible Light 11h 07m
Length of Day
10h 14m
Waning Crescent, 28% of the Moon is Illuminated
Dec 8
Waning Crescent
Dec 13
New
Dec 19
First Quarter
Dec 28
Full
Jan 4
Last Quarter

Hourly Weather History & Observations

Time (CST) Temp. Windchill Dew Point Humidity Pressure Visibility Wind Dir Wind Speed Gust Speed Precip Events Conditions
12:15 AM 44.8 °F 40.4 °F 21.0 °F 39% 30.02 in 10.0 mi South 8.1 mph - N/A   Clear
12:35 AM 45.3 °F 41.1 °F 21.2 °F 38% 30.02 in 10.0 mi South 8.1 mph - N/A   Clear
12:55 AM 45.3 °F 40.1 °F 21.2 °F 38% 30.02 in 10.0 mi SSW 10.4 mph - N/A   Clear
1:15 AM 44.8 °F 43.3 °F 21.2 °F 39% 30.02 in 10.0 mi WSW 3.5 mph - N/A   Clear
1:35 AM 44.6 °F - 21.2 °F 39% 30.02 in 10.0 mi Calm Calm - N/A   Clear
1:55 AM 46.4 °F 44.3 °F 21.2 °F 37% 30.02 in 10.0 mi West 4.6 mph - N/A   Clear
2:15 AM 44.8 °F 41.6 °F 21.2 °F 39% 30.02 in 10.0 mi SSE 5.8 mph - N/A   Clear
2:35 AM 42.3 °F 38.6 °F 21.2 °F 43% 30.02 in 10.0 mi South 5.8 mph - N/A   Clear
2:55 AM 41.9 °F 38.2 °F 21.2 °F 44% 30.02 in 10.0 mi South 5.8 mph - N/A   Clear
3:15 AM 43.0 °F 37.2 °F 21.2 °F 42% 30.02 in 10.0 mi South 10.4 mph - N/A   Clear
3:35 AM 42.1 °F 38.4 °F 21.0 °F 43% 30.02 in 10.0 mi South 5.8 mph - N/A   Clear
3:55 AM 41.2 °F - 21.2 °F 45% 30.02 in 10.0 mi Calm Calm - N/A   Clear
4:15 AM 40.5 °F 38.4 °F 20.8 °F 46% 30.02 in 10.0 mi South 3.5 mph - N/A   Clear
4:35 AM 39.2 °F - 20.8 °F 48% 30.02 in 10.0 mi Calm Calm - N/A   Clear
5:15 AM 38.7 °F 32.9 °F 20.8 °F 49% 30.02 in 10.0 mi SSW 8.1 mph - N/A   Clear
5:35 AM 39.9 °F - 21.2 °F 47% 30.02 in 10.0 mi Calm Calm - N/A   Clear
5:55 AM 39.6 °F 35.4 °F 20.8 °F 47% 30.02 in 10.0 mi SW 5.8 mph - N/A   Clear
6:15 AM 39.7 °F 36.5 °F 21.0 °F 47% 30.03 in 10.0 mi SW 4.6 mph - N/A   Clear
6:35 AM 41.0 °F 34.7 °F 21.0 °F 45% 30.03 in 10.0 mi SSW 10.4 mph - N/A   Clear
6:55 AM 42.3 °F 37.3 °F 21.2 °F 43% 30.04 in 10.0 mi South 8.1 mph - N/A   Clear
7:15 AM 42.4 °F 36.5 °F 21.2 °F 43% 30.04 in 10.0 mi SSW 10.4 mph - N/A   Clear
7:35 AM 41.9 °F 38.2 °F 21.2 °F 44% 30.04 in 10.0 mi SSW 5.8 mph - N/A   Clear
7:55 AM 39.9 °F - 21.2 °F 47% 30.06 in 10.0 mi Calm Calm - N/A   Clear
8:15 AM 41.9 °F 36.9 °F 21.7 °F 45% 30.06 in 10.0 mi SSW 8.1 mph - N/A   Clear
8:35 AM 47.7 °F - 23.5 °F 39% 30.06 in 10.0 mi SSW 8.1 mph - N/A   Clear
8:55 AM 54.9 °F - 25.3 °F 32% 30.06 in 10.0 mi SSW 6.9 mph - N/A   Clear
9:15 AM 58.8 °F - 26.4 °F 29% 30.06 in 10.0 mi SSW 9.2 mph - N/A   Clear
9:35 AM 61.3 °F - 27.3 °F 27% 30.06 in 10.0 mi SW 6.9 mph - N/A   Clear
9:55 AM 63.1 °F - 28.0 °F 27% 30.07 in 10.0 mi WSW 9.2 mph - N/A   Clear
10:15 AM 63.7 °F - 28.2 °F 26% 30.07 in 10.0 mi SW 10.4 mph - N/A   Clear
10:35 AM 64.4 °F - 28.4 °F 26% 30.08 in 10.0 mi WSW 12.7 mph - N/A   Clear
10:55 AM 65.3 °F - 28.2 °F 25% 30.07 in 10.0 mi West 10.4 mph 18.4 mph N/A   Clear
11:15 AM 65.8 °F - 27.9 °F 24% 30.07 in 10.0 mi WSW 12.7 mph 17.3 mph N/A   Clear
11:35 AM 67.1 °F - 27.5 °F 23% 30.06 in 10.0 mi WSW 18.4 mph 21.9 mph N/A   Clear
11:55 AM 67.6 °F - 27.0 °F 22% 30.05 in 10.0 mi WSW 17.3 mph 23.0 mph N/A   Clear
12:15 PM 68.0 °F - 26.8 °F 21% 30.04 in 10.0 mi WSW 11.5 mph 21.9 mph N/A   Clear
12:35 PM 68.4 °F - 27.0 °F 21% 30.04 in 10.0 mi SW 13.8 mph - N/A   Clear
12:55 PM 68.5 °F - 27.1 °F 21% 30.02 in 10.0 mi WSW 11.5 mph - N/A   Clear
1:15 PM 68.9 °F - 26.2 °F 20% 30.01 in 10.0 mi SW 16.1 mph 24.2 mph N/A   Clear
1:35 PM 69.3 °F - 26.2 °F 20% 30.00 in 10.0 mi SW 15.0 mph 19.6 mph N/A   Clear
1:55 PM 70.2 °F - 25.3 °F 19% 29.99 in 10.0 mi SW 16.1 mph 23.0 mph N/A   Clear
2:35 PM 70.0 °F - 24.3 °F 18% 29.97 in 10.0 mi SW 18.4 mph 25.3 mph N/A   Clear
2:55 PM 70.0 °F - 22.6 °F 17% 29.97 in 10.0 mi SW 18.4 mph 24.2 mph N/A   Clear
3:15 PM 69.3 °F - 22.1 °F 17% 29.96 in 10.0 mi SW 15.0 mph 20.7 mph N/A   Clear
3:35 PM 68.9 °F - 21.7 °F 17% 29.96 in 10.0 mi SW 18.4 mph 23.0 mph N/A   Clear
3:55 PM 68.9 °F - 21.2 °F 16% 29.96 in 10.0 mi WSW 13.8 mph 18.4 mph N/A   Clear
4:15 PM 68.4 °F - 20.5 °F 16% 29.96 in 10.0 mi SW 13.8 mph 19.6 mph N/A   Clear
4:35 PM 68.0 °F - 21.2 °F 17% 29.96 in 10.0 mi WSW 15.0 mph 18.4 mph N/A   Clear
4:55 PM 67.5 °F - 21.4 °F 17% 29.96 in 10.0 mi WSW 10.4 mph - N/A   Clear
5:15 PM 65.8 °F - 20.7 °F 18% 29.97 in 10.0 mi SW 11.5 mph 18.4 mph N/A   Clear
5:35 PM 64.0 °F - 20.8 °F 19% 29.97 in 10.0 mi WSW 11.5 mph - N/A   Clear
6:15 PM 60.4 °F - 21.6 °F 22% 29.98 in 10.0 mi SW 8.1 mph - N/A   Clear
6:35 PM 57.7 °F - 21.4 °F 24% 29.99 in 10.0 mi South 5.8 mph - N/A   Clear
6:55 PM 54.1 °F - 21.6 °F 28% 29.98 in 10.0 mi South 8.1 mph - N/A   Clear
7:15 PM 54.1 °F - 21.9 °F 29% 29.99 in 10.0 mi SSW 8.1 mph - N/A   Clear
7:55 PM 53.4 °F - 22.8 °F 30% 30.00 in 10.0 mi Calm Calm - N/A   Clear
8:15 PM 55.4 °F - 23.9 °F 30% 30.00 in 10.0 mi Calm Calm - N/A   Clear
8:35 PM 55.8 °F - 24.1 °F 29% 30.00 in 10.0 mi Calm Calm - N/A   Clear
8:55 PM 54.9 °F - 24.1 °F 30% 30.00 in 10.0 mi Calm Calm - N/A   Clear
9:15 PM 54.1 °F - 24.1 °F 31% 30.00 in 10.0 mi Calm Calm - N/A   Clear
9:35 PM 53.1 °F - 23.7 °F 32% 30.01 in 10.0 mi Calm Calm - N/A   Clear
9:55 PM 50.5 °F - 23.5 °F 35% 30.01 in 10.0 mi SW 3.5 mph - N/A   Clear
10:35 PM 52.2 °F - 23.4 °F 33% 30.02 in 10.0 mi Calm Calm - N/A   Clear
10:55 PM 52.7 °F - 23.0 °F 31% 30.02 in 10.0 mi WSW 3.5 mph - N/A   Clear
11:15 PM 52.7 °F - 23.0 °F 31% 30.02 in 10.0 mi SW 3.5 mph - N/A   Clear
11:35 PM 53.4 °F - 23.0 °F 31% 30.02 in 10.0 mi South 5.8 mph - N/A   Clear
11:55 PM 53.8 °F - 23.0 °F 30% 30.02 in 10.0 mi SW 8.1 mph - N/A   Clear